Year,Month,Day,Hour,Minute,Value (Times are PST for temperature in C)
2006,04,24,00,00,10.20
2006,04,24,00,01,10.20
2006,04,24,00,02,10.10
2006,04,24,00,03,10.10
2006,04,24,00,04,10.10
2006,04,24,00,05,10.10
2006,04,24,00,06,10.10
2006,04,24,00,07,10.10
2006,04,24,00,08,10.10
2006,04,24,00,09,10.10
2006,04,24,00,10,10.10
2006,04,24,00,11,10.10
2006,04,24,00,12,10.10
2006,04,24,00,13,10.10
2006,04,24,00,14,10.10
2006,04,24,00,15,10.10
2006,04,24,00,16,10.10
2006,04,24,00,17,10.10
2006,04,24,00,18,10.10
2006,04,24,00,19,10.00
2006,04,24,00,20,10.00
2006,04,24,00,21,10.10
2006,04,24,00,22,10.10
2006,04,24,00,23,10.10
2006,04,24,00,24,10.10
2006,04,24,00,25,10.10
2006,04,24,00,26,10.10
2006,04,24,00,27,10.10
2006,04,24,00,28,10.10
2006,04,24,00,29,10.10
2006,04,24,00,30,10.10
2006,04,24,00,31,10.10
2006,04,24,00,32,10.10
2006,04,24,00,33,10.10
2006,04,24,00,34,10.10
2006,04,24,00,35,10.10
2006,04,24,00,36,10.10
2006,04,24,00,37,10.00
2006,04,24,00,38,9.90
2006,04,24,00,39,9.90
2006,04,24,00,40,9.80
2006,04,24,00,41,9.80
2006,04,24,00,42,9.70
2006,04,24,00,43,9.70
2006,04,24,00,44,9.60
2006,04,24,00,45,9.60
2006,04,24,00,46,9.60
2006,04,24,00,47,9.60
2006,04,24,00,48,9.60
2006,04,24,00,49,9.70
2006,04,24,00,50,9.80
2006,04,24,00,51,9.90
2006,04,24,00,52,9.90
2006,04,24,00,53,10.00
2006,04,24,00,54,10.10
2006,04,24,00,55,10.20
2006,04,24,00,56,10.20
2006,04,24,00,57,10.20
2006,04,24,00,58,10.20
2006,04,24,00,59,10.10
2006,04,24,01,00,10.00
2006,04,24,01,01,9.90
2006,04,24,01,02,9.70
2006,04,24,01,03,9.60
2006,04,24,01,04,9.50
2006,04,24,01,05,9.30
2006,04,24,01,06,9.20
2006,04,24,01,07,9.10
2006,04,24,01,08,9.00
2006,04,24,01,09,8.90
2006,04,24,01,10,8.80
2006,04,24,01,11,8.80
2006,04,24,01,12,8.70
2006,04,24,01,13,8.70
2006,04,24,01,14,8.70
2006,04,24,01,15,8.70
2006,04,24,01,16,8.70
2006,04,24,01,17,8.70
2006,04,24,01,18,8.70
2006,04,24,01,19,8.80
2006,04,24,01,20,8.80
2006,04,24,01,21,8.80
2006,04,24,01,22,8.80
2006,04,24,01,23,8.80
2006,04,24,01,24,8.80
2006,04,24,01,25,8.80
2006,04,24,01,26,8.80
2006,04,24,01,27,8.70
2006,04,24,01,28,8.70
2006,04,24,01,29,8.70
2006,04,24,01,30,8.70
2006,04,24,01,31,8.70
2006,04,24,01,32,8.70
2006,04,24,01,33,8.70
2006,04,24,01,34,8.70
2006,04,24,01,35,8.70
2006,04,24,01,36,8.80
2006,04,24,01,37,8.80
2006,04,24,01,38,8.90
2006,04,24,01,39,8.90
2006,04,24,01,40,9.00
2006,04,24,01,41,9.10
2006,04,24,01,42,9.10
2006,04,24,01,43,9.10
2006,04,24,01,44,9.00
2006,04,24,01,45,9.00
2006,04,24,01,46,8.90
2006,04,24,01,47,8.90
2006,04,24,01,48,8.80
2006,04,24,01,49,8.70
2006,04,24,01,50,8.70
2006,04,24,01,51,8.70
2006,04,24,01,52,8.70
2006,04,24,01,53,8.70
2006,04,24,01,54,8.60
2006,04,24,01,55,8.60
2006,04,24,01,56,8.60
2006,04,24,01,57,8.50
2006,04,24,01,58,8.50
2006,04,24,01,59,8.40
2006,04,24,02,00,8.40
2006,04,24,02,01,8.30
2006,04,24,02,02,8.30
2006,04,24,02,03,8.20
2006,04,24,02,04,8.20
2006,04,24,02,05,8.20
2006,04,24,02,06,8.20
2006,04,24,02,07,8.10
2006,04,24,02,08,8.10
2006,04,24,02,09,8.10
2006,04,24,02,10,8.00
2006,04,24,02,11,8.00
2006,04,24,02,12,8.00
2006,04,24,02,13,8.00
2006,04,24,02,14,8.00
2006,04,24,02,15,7.90
2006,04,24,02,16,7.90
2006,04,24,02,17,7.90
2006,04,24,02,18,7.80
2006,04,24,02,19,7.80
2006,04,24,02,20,7.80
2006,04,24,02,21,7.80
2006,04,24,02,22,7.80
2006,04,24,02,23,7.80
2006,04,24,02,24,7.80
2006,04,24,02,25,7.80
2006,04,24,02,26,7.80
2006,04,24,02,27,7.80
2006,04,24,02,28,7.80
2006,04,24,02,29,7.80
2006,04,24,02,30,7.80
2006,04,24,02,31,7.80
2006,04,24,02,32,7.80
2006,04,24,02,33,7.80
2006,04,24,02,34,7.80
2006,04,24,02,35,7.80
2006,04,24,02,36,7.80
2006,04,24,02,37,7.80
2006,04,24,02,38,7.80
2006,04,24,02,39,7.80
2006,04,24,02,40,7.80
2006,04,24,02,41,7.80
2006,04,24,02,42,7.80
2006,04,24,02,43,7.80
2006,04,24,02,44,7.80
2006,04,24,02,45,7.80
2006,04,24,02,46,7.80
2006,04,24,02,47,7.80
2006,04,24,02,48,7.80
2006,04,24,02,49,7.80
2006,04,24,02,50,7.80
2006,04,24,02,51,7.80
2006,04,24,02,52,7.80
2006,04,24,02,53,7.80
2006,04,24,02,54,7.90
2006,04,24,02,55,7.90
2006,04,24,02,56,7.90
2006,04,24,02,57,7.90
2006,04,24,02,58,8.00
2006,04,24,02,59,8.00
2006,04,24,03,00,8.00
2006,04,24,03,01,8.10
2006,04,24,03,02,8.20
2006,04,24,03,03,8.20
2006,04,24,03,04,8.40
2006,04,24,03,05,8.60
2006,04,24,03,06,8.90
2006,04,24,03,07,9.10
2006,04,24,03,08,9.30
2006,04,24,03,09,9.50
2006,04,24,03,10,9.60
2006,04,24,03,11,9.80
2006,04,24,03,12,10.00
2006,04,24,03,13,10.20
2006,04,24,03,14,10.30
2006,04,24,03,15,10.30
2006,04,24,03,16,10.60
2006,04,24,03,17,10.60
2006,04,24,03,18,10.60
2006,04,24,03,19,10.70
2006,04,24,03,20,10.80
2006,04,24,03,21,10.80
2006,04,24,03,22,10.80
2006,04,24,03,23,10.70
2006,04,24,03,24,10.70
2006,04,24,03,25,10.70
2006,04,24,03,26,10.70
2006,04,24,03,27,10.70
2006,04,24,03,28,10.80
2006,04,24,03,29,10.90
2006,04,24,03,30,10.90
2006,04,24,03,31,10.80
2006,04,24,03,32,10.50
2006,04,24,03,33,10.30
2006,04,24,03,34,10.00
2006,04,24,03,35,9.80
2006,04,24,03,36,9.60
2006,04,24,03,37,9.50
2006,04,24,03,38,9.50
2006,04,24,03,39,9.30
2006,04,24,03,40,9.20
2006,04,24,03,41,9.20
2006,04,24,03,42,9.10
2006,04,24,03,43,9.10
2006,04,24,03,44,9.00
2006,04,24,03,45,9.00
2006,04,24,03,46,8.90
2006,04,24,03,47,8.90
2006,04,24,03,48,8.90
2006,04,24,03,49,8.80
2006,04,24,03,50,8.80
2006,04,24,03,51,8.70
2006,04,24,03,52,8.70
2006,04,24,03,53,8.70
2006,04,24,03,54,8.70
2006,04,24,03,55,8.60
2006,04,24,03,56,8.60
2006,04,24,03,57,8.50
2006,04,24,03,58,8.50
2006,04,24,03,59,8.50
2006,04,24,04,00,8.40
2006,04,24,04,01,8.40
2006,04,24,04,02,8.40
2006,04,24,04,03,8.30
2006,04,24,04,04,8.30
2006,04,24,04,05,8.30
2006,04,24,04,06,8.20
2006,04,24,04,07,8.20
2006,04,24,04,08,8.20
2006,04,24,04,09,8.20
2006,04,24,04,10,8.10
2006,04,24,04,11,8.00
2006,04,24,04,12,8.00
2006,04,24,04,13,8.00
2006,04,24,04,14,8.00
2006,04,24,04,15,8.00
2006,04,24,04,16,8.00
2006,04,24,04,17,8.10
2006,04,24,04,18,8.10
2006,04,24,04,19,8.10
2006,04,24,04,20,8.10
2006,04,24,04,21,8.10
2006,04,24,04,22,8.20
2006,04,24,04,23,8.20
2006,04,24,04,24,8.20
2006,04,24,04,25,8.20
2006,04,24,04,26,8.20
2006,04,24,04,27,8.20
2006,04,24,04,28,8.30
2006,04,24,04,29,8.30
2006,04,24,04,30,8.40
2006,04,24,04,31,8.50
2006,04,24,04,32,8.60
2006,04,24,04,33,8.70
2006,04,24,04,34,8.80
2006,04,24,04,35,8.90
2006,04,24,04,36,8.90
2006,04,24,04,37,9.00
2006,04,24,04,38,9.10
2006,04,24,04,39,9.20
2006,04,24,04,40,9.20
2006,04,24,04,41,9.20
2006,04,24,04,42,9.20
2006,04,24,04,43,9.20
2006,04,24,04,44,9.20
2006,04,24,04,45,9.20
2006,04,24,04,46,9.20
2006,04,24,04,47,9.20
2006,04,24,04,48,9.20
2006,04,24,04,49,9.20
2006,04,24,04,50,9.20
2006,04,24,04,51,9.20
2006,04,24,04,52,9.20
2006,04,24,04,53,9.20
2006,04,24,04,54,9.20
2006,04,24,04,55,9.20
2006,04,24,04,56,9.30
2006,04,24,04,57,9.30
2006,04,24,04,58,9.40
2006,04,24,04,59,9.50
2006,04,24,05,00,9.60
2006,04,24,05,01,9.70
2006,04,24,05,02,9.80
2006,04,24,05,03,9.90
2006,04,24,05,04,10.00
2006,04,24,05,05,10.10
2006,04,24,05,06,10.20
2006,04,24,05,07,10.30
2006,04,24,05,08,10.40
2006,04,24,05,09,10.40
2006,04,24,05,10,10.50
2006,04,24,05,11,10.60
2006,04,24,05,12,10.60
2006,04,24,05,13,10.60
2006,04,24,05,14,10.60
2006,04,24,05,15,10.60
2006,04,24,05,16,10.60
2006,04,24,05,17,10.60
2006,04,24,05,18,10.60
2006,04,24,05,19,10.60
2006,04,24,05,20,10.60
2006,04,24,05,21,10.60
2006,04,24,05,22,10.60
2006,04,24,05,23,10.60
2006,04,24,05,24,10.60
2006,04,24,05,25,10.60
2006,04,24,05,26,10.60
2006,04,24,05,27,10.60
2006,04,24,05,28,10.60
2006,04,24,05,29,10.60
2006,04,24,05,30,10.60
2006,04,24,05,31,10.40
2006,04,24,05,32,10.40
2006,04,24,05,33,10.40
2006,04,24,05,34,10.30
2006,04,24,05,35,10.30
2006,04,24,05,36,10.20
2006,04,24,05,37,10.20
2006,04,24,05,38,10.10
2006,04,24,05,39,10.00
2006,04,24,05,40,9.90
2006,04,24,05,41,9.90
2006,04,24,05,42,9.80
2006,04,24,05,43,9.70
2006,04,24,05,44,9.60
2006,04,24,05,45,9.50
2006,04,24,05,46,9.40
2006,04,24,05,47,9.40
2006,04,24,05,48,9.30
2006,04,24,05,49,9.20
2006,04,24,05,50,9.10
2006,04,24,05,51,9.00
2006,04,24,05,52,8.90
2006,04,24,05,53,8.90
2006,04,24,05,54,8.80
2006,04,24,05,55,8.80
2006,04,24,05,56,8.70
2006,04,24,05,57,8.80
2006,04,24,05,58,8.90
2006,04,24,05,59,9.00
2006,04,24,06,00,9.10
2006,04,24,06,01,9.20
2006,04,24,06,02,9.40
2006,04,24,06,03,9.50
2006,04,24,06,04,9.70
2006,04,24,06,05,9.70
2006,04,24,06,06,9.80
2006,04,24,06,07,9.90
2006,04,24,06,08,9.90
2006,04,24,06,09,10.00
2006,04,24,06,10,10.10
2006,04,24,06,11,10.20
2006,04,24,06,12,10.20
2006,04,24,06,13,10.20
2006,04,24,06,14,10.30
2006,04,24,06,15,10.30
2006,04,24,06,16,10.30
2006,04,24,06,17,10.30
2006,04,24,06,18,10.30
2006,04,24,06,19,10.30
2006,04,24,06,20,10.30
2006,04,24,06,21,10.40
2006,04,24,06,22,10.40
2006,04,24,06,23,10.40
2006,04,24,06,24,10.50
2006,04,24,06,25,10.60
2006,04,24,06,26,10.60
2006,04,24,06,27,10.60
2006,04,24,06,28,10.60
2006,04,24,06,29,10.70
2006,04,24,06,30,10.70
2006,04,24,06,31,10.70
2006,04,24,06,32,10.80
2006,04,24,06,33,10.80
2006,04,24,06,34,10.80
2006,04,24,06,35,10.90
2006,04,24,06,36,10.90
2006,04,24,06,37,10.90
2006,04,24,06,38,10.90
2006,04,24,06,39,10.90
2006,04,24,06,40,10.80
2006,04,24,06,41,10.80
2006,04,24,06,42,10.80
2006,04,24,06,43,10.80
2006,04,24,06,44,10.80
2006,04,24,06,45,10.80
2006,04,24,06,46,10.80
2006,04,24,06,47,10.80
2006,04,24,06,48,10.80
2006,04,24,06,49,10.80
2006,04,24,06,50,10.80
2006,04,24,06,51,10.70
2006,04,24,06,52,10.70
2006,04,24,06,53,10.70
2006,04,24,06,54,10.80
2006,04,24,06,55,10.80
2006,04,24,06,56,10.80
2006,04,24,06,57,10.90
2006,04,24,06,58,10.90
2006,04,24,06,59,10.90
2006,04,24,07,00,11.00
2006,04,24,07,01,11.10
2006,04,24,07,02,11.10
2006,04,24,07,03,11.10
2006,04,24,07,04,11.10
2006,04,24,07,05,11.20
2006,04,24,07,06,11.20
2006,04,24,07,07,11.30
2006,04,24,07,08,11.30
2006,04,24,07,09,11.40
2006,04,24,07,10,11.40
2006,04,24,07,11,11.50
2006,04,24,07,12,11.60
2006,04,24,07,13,11.60
2006,04,24,07,14,11.70
2006,04,24,07,15,11.70
2006,04,24,07,16,11.70
2006,04,24,07,17,11.80
2006,04,24,07,18,11.80
2006,04,24,07,19,11.80
2006,04,24,07,20,11.80
2006,04,24,07,21,11.80
2006,04,24,07,22,11.80
2006,04,24,07,23,11.80
2006,04,24,07,24,11.80
2006,04,24,07,25,11.80
2006,04,24,07,26,11.90
2006,04,24,07,27,11.90
2006,04,24,07,28,11.90
2006,04,24,07,29,11.90
2006,04,24,07,30,11.90
2006,04,24,07,31,12.00
2006,04,24,07,32,12.00
2006,04,24,07,33,12.00
2006,04,24,07,34,12.10
2006,04,24,07,35,12.10
2006,04,24,07,36,12.20
2006,04,24,07,37,12.20
2006,04,24,07,38,12.30
2006,04,24,07,39,12.30
2006,04,24,07,40,12.30
2006,04,24,07,41,12.30
2006,04,24,07,42,12.40
2006,04,24,07,43,12.40
2006,04,24,07,44,12.40
2006,04,24,07,45,12.40
2006,04,24,07,46,12.50
2006,04,24,07,47,12.60
2006,04,24,07,48,12.60
2006,04,24,07,49,12.60
2006,04,24,07,50,12.70
2006,04,24,07,51,12.70
2006,04,24,07,52,12.80
2006,04,24,07,53,12.80
2006,04,24,07,54,12.80
2006,04,24,07,55,12.80
2006,04,24,07,56,12.80
2006,04,24,07,57,12.80
2006,04,24,07,58,12.80
2006,04,24,07,59,12.80
2006,04,24,08,00,12.80
2006,04,24,08,01,12.80
2006,04,24,08,02,12.80
2006,04,24,08,03,12.80
2006,04,24,08,04,12.80
2006,04,24,08,05,12.80
2006,04,24,08,06,12.80
2006,04,24,08,07,12.80
2006,04,24,08,08,12.80
2006,04,24,08,09,12.70
2006,04,24,08,10,12.70
2006,04,24,08,11,12.70
2006,04,24,08,12,12.70
2006,04,24,08,13,12.70
2006,04,24,08,14,12.70
2006,04,24,08,15,12.70
2006,04,24,08,16,12.70
2006,04,24,08,17,12.70
2006,04,24,08,18,12.70
2006,04,24,08,19,12.70
2006,04,24,08,20,12.70
2006,04,24,08,21,12.70
2006,04,24,08,22,12.70
2006,04,24,08,23,12.70
2006,04,24,08,24,12.80
2006,04,24,08,25,12.80
2006,04,24,08,26,12.80
2006,04,24,08,27,12.80
2006,04,24,08,28,12.90
2006,04,24,08,29,12.90
2006,04,24,08,30,13.00
2006,04,24,08,31,13.00
2006,04,24,08,32,13.00
2006,04,24,08,33,13.10
2006,04,24,08,34,13.10
2006,04,24,08,35,13.10
2006,04,24,08,36,13.20
2006,04,24,08,37,13.20
2006,04,24,08,38,13.20
2006,04,24,08,39,13.20
2006,04,24,08,40,13.20
2006,04,24,08,41,13.30
2006,04,24,08,42,13.30
2006,04,24,08,43,13.30
2006,04,24,08,44,13.30
2006,04,24,08,45,13.30
2006,04,24,08,46,13.30
2006,04,24,08,47,13.40
2006,04,24,08,48,13.40
2006,04,24,08,49,13.40
2006,04,24,08,50,13.40
2006,04,24,08,51,13.40
2006,04,24,08,52,13.40
2006,04,24,08,53,13.40
2006,04,24,08,54,13.40
2006,04,24,08,55,13.40
2006,04,24,08,56,13.40
2006,04,24,08,57,13.40
2006,04,24,08,58,13.40
2006,04,24,08,59,13.50
2006,04,24,09,00,13.50
2006,04,24,09,01,13.50
2006,04,24,09,02,13.50
2006,04,24,09,03,13.50
2006,04,24,09,04,13.50
2006,04,24,09,05,13.50
2006,04,24,09,06,13.60
2006,04,24,09,07,13.60
2006,04,24,09,08,13.60
2006,04,24,09,09,13.60
2006,04,24,09,10,13.60
2006,04,24,09,11,13.70
2006,04,24,09,12,13.70
2006,04,24,09,13,13.70
2006,04,24,09,14,13.70
2006,04,24,09,15,13.80
2006,04,24,09,16,13.80
2006,04,24,09,17,13.80
2006,04,24,09,18,13.80
2006,04,24,09,19,13.80
2006,04,24,09,20,13.80
2006,04,24,09,21,13.90
2006,04,24,09,22,14.00
2006,04,24,09,23,14.00
2006,04,24,09,24,14.10
2006,04,24,09,25,14.20
2006,04,24,09,26,14.20
2006,04,24,09,27,14.20
2006,04,24,09,28,14.20
2006,04,24,09,29,14.20
2006,04,24,09,30,14.20
2006,04,24,09,31,14.30
2006,04,24,09,32,14.30
2006,04,24,09,33,14.40
2006,04,24,09,34,14.40
2006,04,24,09,35,14.40
2006,04,24,09,36,14.40
2006,04,24,09,37,14.40
2006,04,24,09,38,14.40
2006,04,24,09,39,14.50
2006,04,24,09,40,14.50
2006,04,24,09,41,14.50
2006,04,24,09,42,14.60
2006,04,24,09,43,14.50
2006,04,24,09,44,14.40
2006,04,24,09,45,14.30
2006,04,24,09,46,14.20
2006,04,24,09,47,14.30
2006,04,24,09,48,14.40
2006,04,24,09,49,14.40
2006,04,24,09,50,14.40
2006,04,24,09,51,14.40
2006,04,24,09,52,14.50
2006,04,24,09,53,14.50
2006,04,24,09,54,14.50
2006,04,24,09,55,14.60
2006,04,24,09,56,14.60
2006,04,24,09,57,14.70
2006,04,24,09,58,14.80
2006,04,24,09,59,14.80
2006,04,24,10,00,14.90
2006,04,24,10,01,14.90
2006,04,24,10,02,15.00
2006,04,24,10,03,15.10
2006,04,24,10,04,15.20
2006,04,24,10,05,15.20
2006,04,24,10,06,15.20
2006,04,24,10,07,15.30
2006,04,24,10,08,15.30
2006,04,24,10,09,15.30
2006,04,24,10,10,15.30
2006,04,24,10,11,15.30
2006,04,24,10,12,15.30
2006,04,24,10,13,15.40
2006,04,24,10,14,15.40
2006,04,24,10,15,15.40
2006,04,24,10,16,15.40
2006,04,24,10,17,15.30
2006,04,24,10,18,15.20
2006,04,24,10,19,15.20
2006,04,24,10,20,15.20
2006,04,24,10,21,15.20
2006,04,24,10,22,15.10
2006,04,24,10,23,15.10
2006,04,24,10,24,15.20
2006,04,24,10,25,15.10
2006,04,24,10,26,15.10
2006,04,24,10,27,15.10
2006,04,24,10,28,15.10
2006,04,24,10,29,15.00
2006,04,24,10,30,15.00
2006,04,24,10,31,15.00
2006,04,24,10,32,15.00
2006,04,24,10,33,15.00
2006,04,24,10,34,14.90
2006,04,24,10,35,14.80
2006,04,24,10,36,14.80
2006,04,24,10,37,14.80
2006,04,24,10,38,14.80
2006,04,24,10,39,14.80
2006,04,24,10,40,14.80
2006,04,24,10,41,14.80
2006,04,24,10,42,14.80
2006,04,24,10,43,14.80
2006,04,24,10,44,14.80
2006,04,24,10,45,14.80
2006,04,24,10,46,14.80
2006,04,24,10,47,14.80
2006,04,24,10,48,14.80
2006,04,24,10,49,14.90
2006,04,24,10,50,15.00
2006,04,24,10,51,15.10
2006,04,24,10,52,15.20
2006,04,24,10,53,15.20
2006,04,24,10,54,15.30
2006,04,24,10,55,15.30
2006,04,24,10,56,15.30
2006,04,24,10,57,15.30
2006,04,24,10,58,15.30
2006,04,24,10,59,15.30
2006,04,24,11,00,15.30
2006,04,24,11,01,15.30
2006,04,24,11,02,15.40
2006,04,24,11,03,15.50
2006,04,24,11,04,15.60
2006,04,24,11,05,15.70
2006,04,24,11,06,15.70
2006,04,24,11,07,15.70
2006,04,24,11,08,15.60
2006,04,24,11,09,15.60
2006,04,24,11,10,15.70
2006,04,24,11,11,15.70
2006,04,24,11,12,15.70
2006,04,24,11,13,15.80
2006,04,24,11,14,16.00
2006,04,24,11,15,16.10
2006,04,24,11,16,16.10
2006,04,24,11,17,16.10
2006,04,24,11,18,16.10
2006,04,24,11,19,16.20
2006,04,24,11,20,16.30
2006,04,24,11,21,16.30
2006,04,24,11,22,16.30
2006,04,24,11,23,16.30
2006,04,24,11,24,16.20
2006,04,24,11,25,16.20
2006,04,24,11,26,16.30
2006,04,24,11,27,16.40
2006,04,24,11,28,16.40
2006,04,24,11,29,16.40
2006,04,24,11,30,16.30
2006,04,24,11,31,16.20
2006,04,24,11,32,16.10
2006,04,24,11,33,16.10
2006,04,24,11,34,16.10
2006,04,24,11,35,16.10
2006,04,24,11,36,16.10
2006,04,24,11,37,16.10
2006,04,24,11,38,16.10
2006,04,24,11,39,16.10
2006,04,24,11,40,16.20
2006,04,24,11,41,16.30
2006,04,24,11,42,16.30
2006,04,24,11,43,16.40
2006,04,24,11,44,16.40
2006,04,24,11,45,16.60
2006,04,24,11,46,16.60
2006,04,24,11,47,16.50
2006,04,24,11,48,16.40
2006,04,24,11,49,16.40
2006,04,24,11,50,16.50
2006,04,24,11,51,16.60
2006,04,24,11,52,16.60
2006,04,24,11,53,16.60
2006,04,24,11,54,16.80
2006,04,24,11,55,16.90
2006,04,24,11,56,16.80
2006,04,24,11,57,16.80
2006,04,24,11,58,16.80
2006,04,24,11,59,16.80
2006,04,24,12,00,16.90
2006,04,24,12,01,16.90
2006,04,24,12,02,17.00
2006,04,24,12,03,17.00
2006,04,24,12,04,17.20
2006,04,24,12,05,17.20
2006,04,24,12,06,17.30
2006,04,24,12,07,17.40
2006,04,24,12,08,17.40
2006,04,24,12,09,17.50
2006,04,24,12,10,17.70
2006,04,24,12,11,17.70
2006,04,24,12,12,17.80
2006,04,24,12,13,17.90
2006,04,24,12,14,18.10
2006,04,24,12,15,18.20
2006,04,24,12,16,18.10
2006,04,24,12,17,18.00
2006,04,24,12,18,17.80
2006,04,24,12,19,17.80
2006,04,24,12,20,17.80
2006,04,24,12,21,17.90
2006,04,24,12,22,18.10
2006,04,24,12,23,18.20
2006,04,24,12,24,18.20
2006,04,24,12,25,18.20
2006,04,24,12,26,18.10
2006,04,24,12,27,18.10
2006,04,24,12,28,18.20
2006,04,24,12,29,18.10
2006,04,24,12,30,18.10
2006,04,24,12,31,18.20
2006,04,24,12,32,18.20
2006,04,24,12,33,18.20
2006,04,24,12,34,18.40
2006,04,24,12,35,18.50
2006,04,24,12,36,18.70
2006,04,24,12,37,18.90
2006,04,24,12,38,18.90
2006,04,24,12,39,18.90
2006,04,24,12,40,19.00
2006,04,24,12,41,18.90
2006,04,24,12,42,18.90
2006,04,24,12,43,18.90
2006,04,24,12,44,18.90
2006,04,24,12,45,18.90
2006,04,24,12,46,18.90
2006,04,24,12,47,18.90
2006,04,24,12,48,18.80
2006,04,24,12,49,18.70
2006,04,24,12,50,18.80
2006,04,24,12,51,18.80
2006,04,24,12,52,18.80
2006,04,24,12,53,18.90
2006,04,24,12,54,19.00
2006,04,24,12,55,19.10
2006,04,24,12,56,19.30
2006,04,24,12,57,19.40
2006,04,24,12,58,19.50
2006,04,24,12,59,19.60
2006,04,24,13,00,19.70
2006,04,24,13,01,19.60
2006,04,24,13,02,19.60
2006,04,24,13,03,19.60
2006,04,24,13,04,19.50
2006,04,24,13,05,19.60
2006,04,24,13,06,19.60
2006,04,24,13,07,19.60
2006,04,24,13,08,19.70
2006,04,24,13,09,19.70
2006,04,24,13,10,19.80
2006,04,24,13,11,19.70
2006,04,24,13,12,19.80
2006,04,24,13,13,19.80
2006,04,24,13,14,19.70
2006,04,24,13,15,19.70
2006,04,24,13,16,19.60
2006,04,24,13,17,19.60
2006,04,24,13,18,19.50
2006,04,24,13,19,19.60
2006,04,24,13,20,19.60
2006,04,24,13,21,19.60
2006,04,24,13,22,19.50
2006,04,24,13,23,19.50
2006,04,24,13,24,19.50
2006,04,24,13,25,19.50
2006,04,24,13,26,19.40
2006,04,24,13,27,19.30
2006,04,24,13,28,19.30
2006,04,24,13,29,19.30
2006,04,24,13,30,19.40
2006,04,24,13,31,19.40
2006,04,24,13,32,19.30
2006,04,24,13,33,19.30
2006,04,24,13,34,19.30
2006,04,24,13,35,19.30
2006,04,24,13,36,19.40
2006,04,24,13,37,19.60
2006,04,24,13,38,19.60
2006,04,24,13,39,19.50
2006,04,24,13,40,19.50
2006,04,24,13,41,19.50
2006,04,24,13,42,19.40
2006,04,24,13,43,19.40
2006,04,24,13,44,19.50
2006,04,24,13,45,19.70
2006,04,24,13,46,19.80
2006,04,24,13,47,19.70
2006,04,24,13,48,19.70
2006,04,24,13,49,19.80
2006,04,24,13,50,19.90
2006,04,24,13,51,19.90
2006,04,24,13,52,19.90
2006,04,24,13,53,19.80
2006,04,24,13,54,19.80
2006,04,24,13,55,19.90
2006,04,24,13,56,19.90
2006,04,24,13,57,19.90
2006,04,24,13,58,19.90
2006,04,24,13,59,20.10
2006,04,24,14,00,20.10
2006,04,24,14,01,19.90
2006,04,24,14,02,19.90
2006,04,24,14,03,19.90
2006,04,24,14,04,19.90
2006,04,24,14,05,20.00
2006,04,24,14,06,20.10
2006,04,24,14,07,20.10
2006,04,24,14,08,20.20
2006,04,24,14,09,20.20
2006,04,24,14,10,20.20
2006,04,24,14,11,20.30
2006,04,24,14,12,20.30
2006,04,24,14,13,20.40
2006,04,24,14,14,20.40
2006,04,24,14,15,20.40
2006,04,24,14,16,20.40
2006,04,24,14,17,20.40
2006,04,24,14,18,20.60
2006,04,24,14,19,20.70
2006,04,24,14,20,20.70
2006,04,24,14,21,20.60
2006,04,24,14,22,20.60
2006,04,24,14,23,20.70
2006,04,24,14,24,20.70
2006,04,24,14,25,20.60
2006,04,24,14,26,20.50
2006,04,24,14,27,20.50
2006,04,24,14,28,20.50
2006,04,24,14,29,20.60
2006,04,24,14,30,20.70
2006,04,24,14,31,20.80
2006,04,24,14,32,20.80
2006,04,24,14,33,21.00
2006,04,24,14,34,20.90
2006,04,24,14,35,20.90
2006,04,24,14,36,20.90
2006,04,24,14,37,20.80
2006,04,24,14,38,20.70
2006,04,24,14,39,20.80
2006,04,24,14,40,20.80
2006,04,24,14,41,21.00
2006,04,24,14,42,21.00
2006,04,24,14,43,21.10
2006,04,24,14,44,21.20
2006,04,24,14,45,21.30
2006,04,24,14,46,21.30
2006,04,24,14,47,21.40
2006,04,24,14,48,21.40
2006,04,24,14,49,21.50
2006,04,24,14,50,21.60
2006,04,24,14,51,21.60
2006,04,24,14,52,21.70
2006,04,24,14,53,21.70
2006,04,24,14,54,21.70
2006,04,24,14,55,21.60
2006,04,24,14,56,21.60
2006,04,24,14,57,21.60
2006,04,24,14,58,21.70
2006,04,24,14,59,21.80
2006,04,24,15,00,21.80
2006,04,24,15,01,21.70
2006,04,24,15,02,21.80
2006,04,24,15,03,21.90
2006,04,24,15,04,22.00
2006,04,24,15,05,22.10
2006,04,24,15,06,22.20
2006,04,24,15,07,22.10
2006,04,24,15,08,22.10
2006,04,24,15,09,22.20
2006,04,24,15,10,22.20
2006,04,24,15,11,22.30
2006,04,24,15,12,22.50
2006,04,24,15,13,22.60
2006,04,24,15,14,22.70
2006,04,24,15,15,22.80
2006,04,24,15,16,22.80
2006,04,24,15,17,22.90
2006,04,24,15,18,22.60
2006,04,24,15,19,22.40
2006,04,24,15,20,22.20
2006,04,24,15,21,22.10
2006,04,24,15,22,22.10
2006,04,24,15,23,22.00
2006,04,24,15,24,21.90
2006,04,24,15,25,22.00
2006,04,24,15,26,22.00
2006,04,24,15,27,22.10
2006,04,24,15,28,22.20
2006,04,24,15,29,22.20
2006,04,24,15,30,22.10
2006,04,24,15,31,21.60
2006,04,24,15,32,20.90
2006,04,24,15,33,20.40
2006,04,24,15,34,20.00
2006,04,24,15,35,19.50
2006,04,24,15,36,19.10
2006,04,24,15,37,19.10
2006,04,24,15,38,19.10
2006,04,24,15,39,19.10
2006,04,24,15,40,19.00
2006,04,24,15,41,18.70
2006,04,24,15,42,18.40
2006,04,24,15,43,18.00
2006,04,24,15,44,17.80
2006,04,24,15,45,17.60
2006,04,24,15,46,17.50
2006,04,24,15,47,17.50
2006,04,24,15,48,17.50
2006,04,24,15,49,17.50
2006,04,24,15,50,17.60
2006,04,24,15,51,17.70
2006,04,24,15,52,17.90
2006,04,24,15,53,18.00
2006,04,24,15,54,18.10
2006,04,24,15,55,18.20
2006,04,24,15,56,18.20
2006,04,24,15,57,18.20
2006,04,24,15,58,18.20
2006,04,24,15,59,18.20
2006,04,24,16,00,18.10
2006,04,24,16,01,18.00
2006,04,24,16,02,17.90
2006,04,24,16,03,17.90
2006,04,24,16,04,17.90
2006,04,24,16,05,17.90
2006,04,24,16,06,17.90
2006,04,24,16,07,17.90
2006,04,24,16,08,17.90
2006,04,24,16,09,18.00
2006,04,24,16,10,18.10
2006,04,24,16,11,18.10
2006,04,24,16,12,18.30
2006,04,24,16,13,18.40
2006,04,24,16,14,18.40
2006,04,24,16,15,18.30
2006,04,24,16,16,18.30
2006,04,24,16,17,18.30
2006,04,24,16,18,18.30
2006,04,24,16,19,18.20
2006,04,24,16,20,18.10
2006,04,24,16,21,18.00
2006,04,24,16,22,17.90
2006,04,24,16,23,17.80
2006,04,24,16,24,17.70
2006,04,24,16,25,17.60
2006,04,24,16,26,17.50
2006,04,24,16,27,17.40
2006,04,24,16,28,17.50
2006,04,24,16,29,17.50
2006,04,24,16,30,17.60
2006,04,24,16,31,17.70
2006,04,24,16,32,17.80
2006,04,24,16,33,17.90
2006,04,24,16,34,18.00
2006,04,24,16,35,18.10
2006,04,24,16,36,18.30
2006,04,24,16,37,18.40
2006,04,24,16,38,18.30
2006,04,24,16,39,18.30
2006,04,24,16,40,18.20
2006,04,24,16,41,18.20
2006,04,24,16,42,18.20
2006,04,24,16,43,18.20
2006,04,24,16,44,18.20
2006,04,24,16,45,18.20
2006,04,24,16,46,18.10
2006,04,24,16,47,18.10
2006,04,24,16,48,18.10
2006,04,24,16,49,18.10
2006,04,24,16,50,18.10
2006,04,24,16,51,18.10
2006,04,24,16,52,18.20
2006,04,24,16,53,18.20
2006,04,24,16,54,18.20
2006,04,24,16,55,18.20
2006,04,24,16,56,18.20
2006,04,24,16,57,18.20
2006,04,24,16,58,18.30
2006,04,24,16,59,18.40
2006,04,24,17,00,18.40
2006,04,24,17,01,18.40
2006,04,24,17,02,18.40
2006,04,24,17,03,18.40
2006,04,24,17,04,18.30
2006,04,24,17,05,18.40
2006,04,24,17,06,18.40
2006,04,24,17,07,18.50
2006,04,24,17,08,18.60
2006,04,24,17,09,18.70
2006,04,24,17,10,18.80
2006,04,24,17,11,18.80
2006,04,24,17,12,18.90
2006,04,24,17,13,18.90
2006,04,24,17,14,18.90
2006,04,24,17,15,19.00
2006,04,24,17,16,19.10
2006,04,24,17,17,19.10
2006,04,24,17,18,19.20
2006,04,24,17,19,19.40
2006,04,24,17,20,19.40
2006,04,24,17,21,19.50
2006,04,24,17,22,19.60
2006,04,24,17,23,19.70
2006,04,24,17,24,19.80
2006,04,24,17,25,19.80
2006,04,24,17,26,19.90
2006,04,24,17,27,19.90
2006,04,24,17,28,19.90
2006,04,24,17,29,19.90
2006,04,24,17,30,19.90